Tracking 27107 objects as of 20-Mar-2023
HD Live streaming from Space Station
objects crossing your sky now

RESURS O1 DEB

Track RESURS O1 DEB now!
10-day predictions


NORAD ID: 46512
Int'l Code: 1994-074AY
Perigee: 527.7 km
Apogee: 537.2 km
Inclination: 97.9 °
Period: 95.1 minutes
Semi major axis: 6903 km
RCS: Unknown
Launch date: November 4, 1994
Source: Commonwealth of Independent States (former USSR) (CIS)
Launch site: TYURATAM MISSILE AND SPACE COMPLEX (TTMTR)

Note: This is SATELLITE DEBRIS
Your satellite tracking list
Your tracking list is empty




NASA's NSSDC Master Catalog

Two Line Element Set (TLE):
1 46512U 94074AY  23078.69681468  .00161885  00000-0  88295-2 0  9993
2 46512  97.8803 136.3995 0006859 188.6024 171.5089 15.13581025138136
Source of the keplerian elements: AFSPC